Theta_e
345 344 344 344 344 345 347 349 347 349 349 348 348 348 347 346 345 345 344 345 344 342 342 342 343 343 346 344 345 344 344 344 343 342 342 341 341 341 341 341 341 341 341 340 340 341 343 343 344 342 342 342 340 331 331 331 332 334 334 336 336 335
344 344 344 344 344 344 345 347 344 345 346 345 347 347 345 344 345 343 344 343 341 343 340 340 342 345 342 344 343 343 343 343 342 341 341 341 341 340 340 340 340 340 341 337 336 329 334 343 344 343 342 339 331 330 331 332 332 333 334 333 336 338
344 344 344 344 344 343 343 345 344 343 344 345 346 345 343 343 340 340 341 340 340 339 339 340 341 343 343 343 343 343 343 342 341 341 340 339 339 339 339 339 339 340 336 332 327 327 329 333 340 343 339 331 330 330 331 332 332 332 332 335 334 339
343 344 343 343 343 343 344 344 343 341 341 343 343 341 339 339 341 341 340 337 337 339 338 339 344 344 345 339 339 342 341 340 340 342 341 338 339 340 340 339 337 334 331 329 328 329 329 330 330 329 329 330 330 331 331 332 332 331 333 339 334 339
343 343 342 342 343 342 342 343 342 342 342 342 341 339 338 338 339 339 337 336 336 337 334 335 335 335 334 335 334 333 333 332 332 333 334 330 329 329 328 326 327 328 326 328 328 328 330 330 330 330 330 331 331 331 332 332 332 333 334 335 339 341
342 342 342 342 341 342 341 340 340 341 340 340 339 337 336 336 337 336 334 336 335 333 334 334 334 334 333 333 332 331 330 330 331 331 332 328 328 327 327 327 327 327 327 328 329 329 332 331 330 330 330 331 331 331 331 332 333 333 333 335 341 340
340 341 341 342 341 340 339 340 339 339 338 337 337 336 335 335 334 334 334 335 333 333 333 333 334 335 334 333 332 331 330 329 328 329 332 329 328 328 326 326 326 326 327 328 328 328 329 330 330 330 331 331 331 331 331 331 331 332 333 336 341 341
339 340 340 341 339 338 338 338 339 341 338 339 337 335 333 333 333 332 333 334 335 333 333 333 334 334 333 331 330 329 327 328 329 330 330 328 327 328 328 327 325 326 328 328 328 328 328 329 330 331 331 331 331 331 330 331 331 332 332 333 338 343
339 338 338 339 337 337 338 338 337 336 336 339 333 332 331 332 331 332 332 333 334 331 332 332 332 333 332 329 327 328 326 327 328 329 328 328 329 327 327 327 325 326 326 327 327 327 328 328 329 330 331 331 330 330 330 330 331 331 331 332 337 342
338 338 337 337 336 337 337 336 334 335 337 336 330 330 331 330 330 332 331 331 332 331 330 331 331 331 331 328 327 327 326 326 328 328 327 328 328 328 328 326 325 326 326 326 327 329 328 329 330 330 331 331 331 331 330 331 331 331 332 333 336 342
337 337 336 334 334 336 337 334 334 334 335 332 331 332 331 330 330 331 331 331 331 332 329 329 329 328 327 326 325 327 327 326 327 328 327 328 328 328 328 327 326 326 326 326 327 328 328 329 329 330 331 331 330 331 331 331 332 332 332 332 334 337
336 334 334 333 335 335 335 334 333 333 332 331 331 330 329 330 332 330 331 330 330 330 331 328 328 326 326 326 326 327 326 327 328 329 329 329 330 330 330 329 328 327 327 327 327 327 328 328 328 329 330 330 330 330 331 332 331 331 332 332 332 334
334 333 331 333 334 335 335 334 333 332 331 332 331 330 329 329 329 330 330 330 330 331 330 328 327 328 330 325 326 325 325 326 328 330 331 332 330 329 327 326 326 327 326 326 326 326 327 327 327 327 329 329 330 331 331 332 330 331 331 331 331 332
333 333 332 333 334 335 335 334 334 332 333 331 330 329 330 328 330 330 330 330 330 331 329 328 328 327 327 325 325 324 325 327 329 331 331 330 326 325 325 325 326 327 328 326 325 325 326 325 326 326 327 328 329 330 330 329 330 329 330 330 330 331
334 332 334 334 334 334 334 334 333 333 332 331 330 329 329 328 329 329 330 330 331 331 329 328 328 328 326 325 324 323 325 329 331 332 331 328 326 325 325 324 325 324 324 325 325 326 324 324 325 326 326 327 328 328 328 328 329 329 329 328 330 330
333 332 333 334 334 335 334 334 334 335 331 331 330 329 329 329 329 329 331 331 330 331 329 328 328 327 326 325 324 324 326 328 332 332 329 327 326 324 323 323 324 325 324 323 324 323 324 324 325 325 326 326 326 327 326 326 328 328 327 328 327 328
331 332 333 334 334 334 334 333 334 335 332 331 330 330 330 329 329 330 330 331 330 331 329 328 328 327 327 325 324 325 325 329 332 331 328 326 324 324 323 323 322 324 324 323 323 323 324 324 324 324 324 324 325 326 325 326 326 326 327 326 327 328
332 333 334 334 334 333 334 334 334 334 334 331 330 331 330 330 329 329 330 330 331 332 330 328 327 327 326 326 325 326 326 329 330 329 326 326 324 323 323 323 321 322 323 324 323 323 323 323 324 323 323 323 323 323 324 326 328 329 325 325 326 327
332 333 334 334 333 333 333 334 334 335 333 333 332 332 332 331 329 330 330 330 332 331 331 328 328 328 327 328 326 325 325 326 329 327 326 326 324 324 323 322 322 322 323 324 324 324 324 324 323 323 323 323 323 323 324 326 324 324 326 328 331 329
332 333 334 333 333 332 333 333 332 333 333 333 333 333 332 332 331 331 331 332 331 330 331 329 327 328 329 328 326 325 325 326 328 327 326 325 324 323 322 322 322 323 323 324 324 324 324 324 322 323 323 323 323 324 324 324 324 324 325 327 326 326
332 334 333 332 332 332 331 332 333 332 332 332 332 332 331 330 331 330 331 331 331 330 330 330 329 328 328 330 326 324 325 326 326 328 327 326 325 323 322 323 323 323 324 323 323 323 323 324 321 319 320 319 321 324 327 325 323 324 324 325 327 326
333 333 333 333 332 333 333 333 333 333 332 332 332 331 329 329 329 329 329 329 329 329 330 330 330 328 329 328 325 325 325 326 327 326 327 327 326 326 323 322 322 321 320 323 321 322 322 319 316 317 317 315 318 320 322 321 320 321 324 324 324 325
331 332 333 333 333 332 332 333 334 332 333 329 330 330 328 327 330 328 327 329 329 328 330 331 329 329 328 326 325 325 325 325 325 326 327 327 325 322 322 322 322 322 320 321 322 322 321 319 317 316 316 315 310 313 317 317 316 317 322 323 325 326
331 332 332 333 332 331 332 331 330 331 332 332 328 329 325 325 326 327 327 329 330 329 330 331 329 328 327 325 325 324 324 325 326 328 328 327 325 322 321 321 320 322 323 321 319 321 322 321 319 319 314 312 311 311 310 311 311 313 317 323 324 325
332 332 332 332 331 330 330 328 327 327 328 326 326 324 323 322 325 327 328 329 330 330 331 331 330 328 328 325 324 324 324 325 327 328 329 327 325 323 322 322 322 322 323 323 317 318 322 323 320 321 316 311 310 310 307 312 310 312 314 318 322 325
332 332 332 331 330 330 330 327 326 326 324 322 321 321 321 322 323 326 327 327 330 330 330 331 330 329 327 326 324 324 324 324 326 328 328 327 326 324 321 321 322 323 321 322 322 319 320 321 321 320 318 317 316 311 311 312 309 308 315 314 318 322
332 332 332 330 329 330 327 327 326 326 325 323 321 317 318 319 323 320 324 327 328 328 330 330 329 328 326 326 324 325 324 324 326 327 328 326 325 324 323 322 322 322 322 321 321 320 320 319 320 321 320 320 321 316 317 312 307 309 310 313 314 316
331 331 332 330 329 329 326 325 325 324 323 322 322 321 320 320 320 323 323 324 326 326 328 328 327 326 325 326 325 324 323 324 325 327 327 325 325 324 323 324 323 321 320 322 322 322 320 320 321 320 319 318 317 316 314 312 313 314 312 310 311 317
329 329 329 329 328 327 326 324 324 323 322 323 323 321 321 322 321 321 321 321 324 324 324 324 324 324 325 325 327 324 324 324 325 327 328 325 324 324 324 323 322 320 320 320 321 321 321 321 320 319 317 315 315 313 312 312 311 311 311 311 310 312
327 327 328 328 326 325 324 323 323 322 322 321 321 319 320 319 319 319 319 318 318 320 320 320 322 324 325 325 325 325 324 324 326 328 328 325 324 323 323 323 322 321 320 319 319 321 321 321 321 319 319 316 313 312 312 312 311 311 311 311 311 311
324 324 326 326 325 322 322 322 322 323 322 320 320 320 319 317 317 317 318 316 317 316 316 318 320 322 324 324 323 325 324 324 325 328 327 325 325 324 323 323 322 321 320 320 319 320 320 320 320 319 318 318 315 314 313 311 310 312 310 309 311 311
321 322 323 323 322 321 321 322 323 323 321 321 320 320 320 318 318 319 317 316 315 316 315 315 315 317 318 321 324 323 323 323 325 326 325 325 325 324 323 322 321 321 320 319 319 320 319 319 319 320 318 318 317 315 313 313 312 313 313 313 314 311
318 319 320 320 320 320 321 321 322 322 321 321 321 320 320 319 318 318 316 316 316 316 314 316 314 316 315 317 319 318 319 320 322 323 323 322 323 323 322 322 321 320 319 319 320 319 319 319 320 320 320 317 315 314 313 313 313 312 312 313 313 311
317 318 319 319 319 319 320 321 321 322 321 321 320 320 319 319 317 317 317 317 317 317 316 317 315 316 315 316 316 318 318 317 318 320 321 320 321 322 322 322 321 320 319 319 319 319 319 319 319 319 319 317 316 315 314 313 312 312 311 312 312 312
317 318 318 317 318 319 319 320 320 321 321 320 319 318 317 318 316 316 315 316 316 316 316 315 316 316 317 315 314 315 316 316 317 318 320 320 321 321 321 322 321 320 319 318 319 318 318 318 318 317 318 318 316 315 314 312 312 312 313 314 314 312
318 318 318 318 317 318 318 318 319 319 319 318 318 316 316 316 315 316 316 316 315 315 315 314 314 316 315 315 315 316 316 315 316 317 318 318 319 320 321 321 320 320 319 319 318 318 317 318 318 317 318 316 317 316 315 312 312 312 312 314 314 313
317 317 317 317 316 316 317 317 317 317 317 317 316 315 315 314 314 314 315 315 315 314 314 316 316 315 314 312 313 315 315 314 315 315 316 317 318 319 319 320 318 317 316 317 318 318 315 318 318 317 316 317 319 316 315 313 311 312 312 312 313 314
Wind_Speed
8 9 8 7 7 7 10 15 13 14 14 14 13 13 13 14 13 12 10 10 8 6 5 6 7 6 11 7 8 11 11 10 8 8 7 7 7 7 8 9 9 9 9 8 8 8 7 8 11 13 13 13 12 6 5 6 6 4 3 3 4 5
8 9 8 7 6 6 7 10 6 7 7 10 11 11 9 8 9 7 12 8 5 5 5 5 6 8 5 6 7 12 11 10 9 8 7 7 7 7 9 8 8 8 8 8 8 5 4 7 12 12 12 12 7 5 5 5 5 4 4 3 4 7
9 9 9 8 6 5 6 6 6 7 7 9 8 8 6 7 5 6 6 5 5 5 5 5 5 6 6 10 9 12 12 10 9 8 8 7 6 7 8 7 8 9 9 8 5 4 4 5 6 11 10 7 5 5 5 5 5 4 4 3 3 9
10 9 8 6 6 5 5 6 6 5 5 6 6 6 5 6 6 6 6 5 5 5 5 5 9 11 9 5 7 11 11 9 9 8 8 5 6 7 8 9 9 8 5 4 5 5 5 5 5 6 6 5 5 5 5 4 4 4 3 3 2 8
8 8 8 7 6 5 6 6 5 6 6 5 5 5 5 5 6 6 5 4 5 5 5 5 6 5 5 5 6 6 5 5 4 4 5 3 3 4 5 5 5 5 4 5 5 5 5 6 6 6 6 5 5 4 4 4 4 4 3 3 3 6
8 8 7 6 6 7 8 6 7 6 6 5 5 5 4 4 5 5 4 5 5 6 5 5 5 5 5 5 6 4 4 3 4 3 2 3 4 4 4 4 5 5 5 5 5 5 5 5 7 6 5 5 5 4 4 4 4 3 3 2 3 7
8 8 8 7 6 6 6 6 6 6 7 5 4 5 4 4 4 5 4 4 6 5 5 5 6 5 5 5 4 3 3 2 3 2 2 3 3 3 3 4 4 5 5 6 6 5 6 6 6 7 6 5 5 5 4 4 4 3 3 3 3 7
7 8 7 8 7 7 7 7 7 8 6 7 6 4 4 4 4 5 4 4 5 5 7 7 6 6 4 4 3 2 2 2 2 2 2 3 3 2 3 4 4 5 6 5 5 5 5 5 6 6 6 5 4 4 4 4 4 4 4 4 4 8
7 9 7 8 9 8 8 8 7 7 7 8 5 4 4 4 5 5 4 5 5 5 5 5 5 5 4 3 3 2 2 2 2 2 2 3 2 3 4 4 4 5 5 5 5 5 5 5 5 5 6 5 5 5 4 4 4 4 4 4 4 7
6 7 8 9 7 9 9 8 7 8 7 7 5 5 4 5 4 5 5 4 4 5 5 6 6 4 4 3 2 2 2 2 2 1 2 3 2 3 4 4 5 5 5 5 5 4 4 5 5 5 5 5 5 5 4 5 4 4 4 5 4 5
3 3 3 6 7 7 8 8 8 7 6 6 5 5 5 4 5 5 4 5 5 5 5 5 5 5 4 3 2 2 2 1 1 1 2 4 4 3 4 5 5 5 5 5 4 4 5 6 5 5 4 5 5 5 5 4 4 4 5 4 4 4
1 0 2 6 7 7 7 8 8 6 6 6 6 5 5 4 5 4 4 4 5 5 5 5 5 5 4 4 2 2 2 1 1 1 3 4 4 3 4 5 5 5 5 5 5 5 5 6 5 4 5 6 4 5 5 5 5 5 5 5 5 4
4 4 3 5 6 5 5 6 7 7 6 6 5 5 5 5 5 4 4 4 4 5 5 5 5 5 5 4 3 2 2 1 1 2 3 4 4 4 5 6 5 5 5 5 6 6 6 6 5 5 5 5 5 6 6 5 5 5 5 4 4 4
11 10 10 6 6 6 5 5 6 6 6 6 5 5 5 4 5 4 4 4 4 5 5 5 5 4 5 4 4 3 2 2 2 3 3 4 4 5 5 6 5 5 5 5 5 5 6 7 6 6 5 5 6 5 4 6 2 4 4 5 4 5
12 10 8 7 8 6 5 6 6 6 6 6 5 5 4 4 5 4 4 4 4 4 5 5 5 5 5 5 4 3 2 2 3 3 4 3 5 4 5 5 5 6 5 5 5 6 6 6 6 6 6 5 6 6 5 3 3 5 3 4 5 4
11 10 9 8 7 7 6 6 6 6 6 6 5 5 4 4 4 4 4 4 4 4 5 5 4 4 4 4 4 4 2 2 4 4 4 4 4 5 5 5 3 4 7 5 6 6 5 6 6 6 5 5 5 5 5 2 2 4 3 4 4 4
12 11 10 8 7 7 6 6 6 6 6 6 6 5 4 4 4 4 4 4 4 4 5 5 5 4 4 4 3 4 2 3 5 4 4 5 4 4 5 5 4 4 3 6 7 8 6 5 6 6 5 6 5 4 5 3 2 3 4 5 4 4
12 10 8 8 8 7 6 6 5 5 6 5 5 5 5 5 5 4 4 4 4 3 3 4 4 4 3 3 3 3 3 4 4 4 5 5 4 3 3 5 5 3 3 5 7 7 7 7 6 6 6 6 5 4 3 3 3 3 4 4 4 5
11 10 9 8 7 7 7 6 5 6 5 5 4 4 4 4 4 4 4 4 4 4 4 4 4 4 5 4 4 4 3 4 5 5 6 5 5 4 3 3 6 5 4 4 7 7 8 8 7 7 7 6 5 5 4 4 3 4 4 5 5 5
7 8 7 7 7 7 6 7 7 6 6 5 4 4 3 4 4 4 4 4 4 4 4 4 4 4 5 5 4 4 5 4 5 6 6 6 5 5 6 6 6 7 7 6 6 6 7 9 7 8 8 6 5 4 5 4 5 5 4 5 4 5
7 8 8 8 7 7 8 7 6 7 5 5 5 5 4 3 4 4 5 5 5 4 5 5 5 4 5 4 4 4 5 4 5 6 6 6 6 5 4 5 5 3 7 7 5 5 5 6 8 6 6 7 7 6 5 6 6 5 5 4 4 5
7 8 8 9 8 7 7 7 6 5 5 5 5 5 4 3 4 4 5 5 5 5 6 6 5 5 4 5 5 5 5 5 5 5 5 5 6 6 6 5 5 5 2 5 4 4 3 3 4 5 7 5 6 5 5 6 7 6 5 5 4 6
7 7 7 7 8 7 5 6 7 5 7 4 3 3 4 4 4 5 4 4 4 5 6 6 6 6 5 5 5 6 5 5 5 5 6 6 6 6 6 7 6 6 5 3 3 2 2 2 5 4 4 6 3 4 4 5 5 7 5 5 6 7
8 7 6 6 6 6 7 6 5 7 6 5 4 4 4 4 4 5 4 3 3 3 4 5 5 5 4 4 5 5 5 5 6 5 6 6 6 5 6 5 5 4 7 6 2 1 2 1 4 7 4 3 3 4 5 4 5 5 4 7 7 7
8 7 7 7 7 7 8 7 6 7 6 6 5 4 4 3 3 4 4 4 4 4 4 4 4 4 4 5 4 4 4 5 6 6 5 5 6 6 6 6 6 6 6 8 5 2 0 1 3 1 7 5 4 1 2 4 4 5 5 5 7 7
7 7 8 8 8 8 8 8 8 7 7 5 4 5 5 5 4 4 5 3 3 4 4 5 4 4 3 4 5 5 4 5 4 5 5 5 5 5 5 6 6 7 5 3 7 5 2 2 2 3 2 1 3 4 6 5 3 3 4 5 5 7
7 7 8 7 7 7 7 7 8 8 7 7 6 2 1 2 5 4 4 4 3 3 3 4 3 4 4 3 4 5 5 5 5 4 5 5 5 6 5 5 5 5 6 5 6 6 7 4 2 2 2 1 3 1 7 7 3 5 5 3 5 4
6 6 6 7 7 7 8 6 7 6 6 6 6 6 5 4 4 5 5 4 4 3 3 3 4 4 4 4 5 5 4 5 5 5 5 5 6 4 4 3 3 4 4 5 6 7 6 6 7 3 2 2 4 5 5 5 6 6 6 6 3 4
7 6 6 7 7 6 7 7 6 6 6 3 5 5 5 4 6 6 6 4 5 4 3 3 3 4 3 4 5 5 5 5 5 5 4 4 5 6 6 6 5 5 5 4 3 3 6 6 4 4 4 4 5 5 5 5 6 5 5 6 2 2
7 6 6 7 6 7 6 6 7 6 7 5 5 5 5 5 5 5 6 4 4 4 4 3 3 3 3 3 4 5 5 6 6 6 5 5 5 5 5 6 6 6 5 5 3 4 5 5 4 4 3 6 4 4 4 4 5 6 6 4 7 7
6 6 6 7 7 7 6 6 6 7 8 8 6 7 6 5 4 4 6 5 5 4 3 4 3 3 3 3 3 4 4 4 5 6 5 5 6 6 6 6 5 5 5 6 4 4 4 4 3 3 4 6 7 8 7 6 7 5 5 5 6 5
6 6 5 6 7 7 6 5 6 7 8 8 8 6 7 6 5 5 5 5 4 4 3 3 3 4 4 4 5 5 5 5 6 5 6 5 5 5 5 5 5 5 4 4 4 5 5 5 6 4 4 5 5 4 2 5 6 6 8 7 8 8
6 5 6 6 7 7 6 6 7 7 8 8 8 8 7 7 5 6 5 5 5 5 4 4 3 5 4 6 5 6 6 6 6 6 6 6 5 5 6 5 5 5 5 6 5 5 5 6 7 7 6 3 3 3 3 4 5 6 5 7 9 8
6 5 6 7 7 7 6 7 7 7 8 8 7 7 7 7 6 5 5 6 6 6 6 5 5 4 4 4 4 4 5 5 4 5 6 6 6 5 6 6 6 6 6 5 4 5 5 5 5 4 4 5 4 4 4 5 6 7 8 8 7 9
8 6 7 7 6 7 6 7 6 6 7 6 7 6 6 6 7 6 5 6 5 5 6 5 6 4 3 3 4 4 4 4 4 5 5 5 5 5 5 5 5 5 5 5 5 5 5 6 6 6 5 5 4 4 5 5 7 7 8 9 9 9
9 8 8 7 5 6 6 6 5 6 6 7 6 6 5 5 5 7 7 6 6 5 5 5 3 4 3 3 4 4 4 4 4 5 5 5 6 6 6 6 5 5 5 4 6 7 6 6 6 6 6 4 5 4 4 6 5 7 7 7 8 8
6 6 7 7 7 6 6 6 6 7 7 8 9 9 9 8 7 5 5 5 6 5 5 5 5 3 4 2 3 5 5 4 4 4 4 4 5 6 6 5 5 6 5 5 5 6 5 6 5 5 5 7 6 5 5 5 4 5 5 5 7 8
Wind_Direction
132 126 128 132 134 135 147 143 142 136 135 129 126 127 128 132 134 129 126 120 109 96 91 99 103 99 103 104 115 115 107 105 103 99 88 80 81 85 81 80 82 82 79 71 61 61 74 107 132 140 139 138 119 97 105 100 103 109 114 119 124 134
127 128 131 134 135 139 143 137 128 133 128 130 131 128 122 123 125 120 127 117 104 101 95 97 99 107 101 111 113 108 103 98 100 96 90 80 74 73 77 80 80 84 76 68 67 55 40 108 135 141 135 107 90 92 95 100 101 107 104 117 135 133
131 133 136 136 135 127 120 122 124 125 127 128 124 113 111 111 95 106 103 107 102 102 100 91 95 113 110 114 106 102 96 97 98 97 94 89 80 74 78 79 75 64 65 66 61 54 62 62 109 116 100 88 79 84 89 91 98 106 117 128 118 132
137 137 138 136 127 116 112 120 116 102 102 104 105 101 104 108 106 108 106 103 106 99 101 110 124 113 99 75 95 97 98 88 78 73 61 43 50 72 72 68 69 66 64 74 75 70 76 64 73 70 74 78 77 89 96 109 119 116 122 119 144 122
134 136 138 137 124 113 114 112 107 107 105 108 106 105 105 105 112 109 108 103 97 94 82 76 72 74 72 78 69 63 52 60 68 54 57 63 47 51 57 59 54 61 69 80 74 74 88 89 74 74 75 82 88 93 107 115 111 107 98 105 144 124
131 138 144 135 124 123 118 114 115 114 112 103 110 109 107 111 111 110 110 104 93 91 87 83 79 82 78 78 76 75 72 82 82 90 78 86 55 51 50 55 66 70 72 71 74 66 72 95 98 86 92 101 112 112 111 93 82 79 79 83 126 118
140 146 145 135 126 116 116 113 114 124 124 121 113 119 118 108 108 110 108 112 108 100 96 93 93 84 75 78 80 83 92 86 105 103 78 94 68 52 49 49 61 75 78 77 70 68 82 87 106 114 114 125 130 116 90 86 80 76 62 76 97 104
143 148 143 138 123 120 113 123 131 133 126 143 134 130 119 115 110 110 110 97 108 107 114 110 107 104 91 90 88 77 85 89 90 96 70 71 75 55 56 52 67 77 78 73 84 80 86 100 109 116 117 109 83 73 74 79 83 77 70 70 70 94
151 147 139 138 134 132 134 135 131 129 137 150 134 134 128 117 114 113 105 110 124 114 110 115 120 120 107 94 87 69 79 85 95 82 82 67 69 75 67 62 81 87 85 86 83 88 88 84 98 102 112 97 93 94 85 72 69 68 59 57 67 99
162 154 148 142 140 139 140 140 138 142 149 141 141 128 126 118 119 118 114 120 115 117 123 130 130 122 123 104 87 84 62 64 84 72 89 75 57 60 67 68 79 84 91 88 84 86 85 84 82 85 97 107 101 93 81 79 68 67 57 49 58 97
127 147 119 119 132 141 146 143 145 146 138 137 139 127 119 121 117 116 125 123 117 121 125 127 127 126 103 114 112 110 84 42 64 52 73 73 63 67 66 74 100 108 107 107 98 80 85 91 92 89 93 97 93 84 83 77 72 62 58 51 53 55
58 79 154 139 142 147 148 145 142 137 131 138 136 130 126 124 126 118 118 120 123 123 122 121 126 125 128 124 127 120 110 103 101 55 75 73 76 74 82 89 95 101 105 107 101 82 78 97 88 89 89 84 80 84 84 82 76 65 65 58 60 56
189 165 209 169 138 140 143 143 138 134 133 137 134 130 131 133 125 119 116 125 130 130 131 135 131 139 140 135 130 129 117 121 127 97 91 100 98 93 96 98 90 92 86 81 89 85 83 77 93 78 79 84 88 86 74 62 74 77 72 64 56 62
170 176 185 161 136 143 152 136 127 127 130 131 135 134 136 131 129 127 130 140 138 136 130 132 138 138 133 136 132 130 127 131 138 129 104 100 109 115 106 108 115 101 100 95 100 92 101 94 80 77 73 73 71 63 72 94 35 63 70 77 69 62
173 175 169 150 150 147 144 139 133 131 133 137 135 135 134 128 131 140 142 146 142 137 135 142 149 149 149 142 136 131 135 151 141 127 104 101 121 112 108 111 125 111 96 95 97 93 99 100 97 87 85 80 73 80 60 21 97 92 69 74 73 64
168 168 166 157 151 144 143 136 131 135 129 133 133 134 137 142 141 144 147 148 154 145 145 145 145 141 139 147 143 147 162 144 139 119 110 120 122 117 111 104 80 107 115 102 107 92 98 101 98 94 91 102 95 83 87 56 72 88 84 74 66 62
163 174 165 149 143 139 133 133 132 129 132 133 134 134 135 136 140 147 147 154 163 156 146 145 143 143 141 143 144 148 128 147 143 124 117 113 103 122 129 115 76 47 90 127 118 111 102 99 97 95 86 83 80 81 86 114 90 81 70 72 70 67
161 164 157 147 147 140 134 124 120 121 130 126 127 130 133 137 146 149 146 145 139 122 126 129 130 143 132 118 131 136 123 145 131 119 115 109 110 98 102 121 101 48 92 122 121 114 109 108 103 95 79 77 80 81 91 86 73 69 73 71 68 66
157 155 150 141 138 129 120 109 107 115 112 111 111 107 120 125 128 132 130 131 129 128 118 119 142 135 135 135 129 124 150 164 131 124 117 114 115 113 100 89 112 104 75 87 119 119 121 113 100 91 81 74 77 78 74 73 70 70 66 67 71 65
159 149 138 133 133 132 129 132 126 117 119 123 124 126 125 129 133 134 135 139 156 144 121 141 140 150 150 132 143 146 152 162 136 133 132 131 133 144 146 122 118 121 108 88 79 109 114 108 94 86 83 72 67 77 73 66 65 65 67 69 79 71
164 155 150 146 147 147 142 136 130 132 128 136 142 136 131 130 145 141 139 148 169 154 132 147 150 179 152 137 142 149 138 144 149 138 147 144 146 140 140 129 117 92 118 114 92 96 109 115 105 79 68 71 58 43 67 60 60 58 65 66 76 72
161 165 164 160 152 150 154 153 142 140 124 132 135 147 132 152 158 147 150 156 162 155 145 154 160 173 161 146 154 159 152 158 152 134 141 143 136 132 126 124 123 88 360 114 115 142 129 92 45 122 121 77 59 53 64 65 57 50 66 78 81 77
164 167 163 156 151 146 137 139 145 132 132 112 92 111 119 160 154 145 155 156 162 157 149 151 162 168 166 162 159 158 161 150 140 135 137 141 138 137 143 148 155 138 119 31 96 101 35 51 129 128 104 98 60 70 1 22 40 45 53 78 84 88
167 161 150 151 136 123 124 117 100 116 113 119 141 121 97 120 119 123 136 149 155 156 152 154 157 161 156 150 153 159 153 148 148 157 148 144 148 148 140 143 135 150 136 130 133 156 22 36 138 138 82 81 162 119 95 46 47 16 26 71 80 86
163 155 149 142 135 124 113 100 100 93 101 88 75 93 102 78 118 136 125 156 169 160 160 155 149 150 157 152 140 141 152 150 149 155 143 145 159 166 162 159 158 156 174 152 165 129 332 47 101 17 137 116 75 97 188 168 127 34 357 39 51 77
152 148 150 151 144 140 142 138 134 137 140 129 131 141 168 166 152 149 156 118 139 153 156 158 152 149 144 139 142 144 146 144 146 150 154 153 156 148 156 159 177 166 165 207 152 136 127 30 63 62 86 129 163 168 160 185 94 101 29 53 50 64
153 150 153 150 146 140 138 145 147 148 150 157 152 159 131 142 140 111 114 130 120 110 135 144 139 145 144 140 134 144 147 146 145 147 151 149 159 173 175 175 159 164 174 142 140 149 157 154 68 24 41 85 148 151 144 137 130 125 95 8 32 33
144 144 150 144 148 145 142 142 143 146 145 144 157 160 154 129 102 108 95 94 100 88 93 117 135 136 144 141 139 135 137 141 147 156 155 161 165 165 151 139 157 156 145 163 167 157 157 167 165 184 36 76 86 95 89 77 114 139 127 128 83 60
137 135 138 143 141 138 137 141 142 140 135 142 137 135 120 101 99 96 102 102 107 99 89 95 134 144 138 142 144 142 143 144 154 163 158 152 153 165 171 164 154 152 161 150 144 123 144 176 159 165 123 61 79 77 75 73 104 96 133 131 113 139
135 135 137 140 135 129 131 139 142 141 139 130 114 98 104 101 96 106 112 114 118 127 135 127 132 140 145 155 146 147 148 154 160 168 167 163 152 163 174 172 176 173 159 151 119 145 161 169 165 146 148 142 115 101 78 83 73 108 67 56 149 162
131 126 137 141 137 135 133 141 143 144 144 134 125 120 111 100 100 106 126 132 136 144 142 144 138 145 164 159 154 161 155 159 163 168 167 168 170 173 178 174 167 156 162 160 164 145 117 129 144 141 146 157 157 171 171 166 165 154 134 127 106 127
125 131 138 140 132 133 136 139 143 145 143 139 135 135 140 147 155 151 146 142 140 123 120 129 145 154 170 176 163 172 169 164 171 170 177 182 179 174 163 150 154 162 166 161 150 152 149 147 170 167 172 185 184 155 115 136 154 145 142 149 138 141
137 138 140 140 136 136 137 147 151 149 145 143 141 144 149 145 162 153 156 142 141 140 150 132 169 155 175 170 166 163 171 175 182 183 170 171 176 165 154 151 156 158 162 169 174 167 169 184 178 178 185 177 150 151 134 119 122 121 96 122 130 127
142 141 140 136 138 138 145 152 155 154 148 145 142 148 150 152 159 158 164 163 165 165 166 169 173 179 183 160 154 158 159 165 171 163 158 163 164 166 159 159 159 163 177 170 152 169 175 176 183 157 134 148 169 150 143 134 134 129 133 126 137 140
138 146 139 136 137 138 147 151 153 148 143 138 139 147 155 152 152 161 177 167 172 167 157 175 169 174 159 140 131 124 135 130 132 142 144 146 153 155 159 151 166 168 151 154 160 158 167 166 171 165 159 163 153 136 146 147 146 149 151 152 147 151
148 146 130 127 138 137 138 140 136 135 137 130 130 134 134 141 164 168 170 170 169 170 162 150 156 134 152 141 143 126 110 110 117 122 133 142 148 153 161 157 157 159 161 161 157 167 173 172 172 170 162 140 143 158 150 154 163 155 160 156 146 152
113 105 112 131 129 122 123 130 138 141 142 142 150 156 161 167 167 168 163 166 158 168 148 143 145 147 129 124 141 129 116 108 101 111 114 127 137 146 153 154 152 153 152 168 159 177 161 175 179 162 150 166 169 153 164 158 145 139 139 141 156 159